N720CC LFRD-LSGG

Flight info

Callsign N720CC
Flight time 1h 2m
Altitude 35000
Route EKRAS UN491 RESMI UM975 PEKIM DCT AVLON DCT LUSAR
Aircraft C750/M-SBDE3FGHRWXY/S

Departure

Time 2026-05-06 11:10
Airport Dinard Pleurtuit Saint-Malo airport (LFRD)

Arrival

Time 2026-05-06 12:12
Airport Geneva International Airport (LSGG)
Time Latitude Longitude Altitude Speed Heading
2026-05-06 10:53 48.58923 -2.07725 228 ft 0 kts 214°
2026-05-06 11:05 48.58922 -2.07729 226 ft 1 kts 242°
2026-05-06 11:06 48.58918 -2.07797 226 ft 8 kts 263°
2026-05-06 11:06 48.58908 -2.07879 226 ft 10 kts 259°
2026-05-06 11:06 48.58877 -2.07998 225 ft 13 kts 223°
2026-05-06 11:06 48.58791 -2.08028 226 ft 16 kts 174°
2026-05-06 11:07 48.58674 -2.07979 226 ft 18 kts 164°
2026-05-06 11:07 48.58550 -2.07943 227 ft 19 kts 170°
2026-05-06 11:07 48.58405 -2.07905 227 ft 23 kts 170°
2026-05-06 11:07 48.58233 -2.07859 226 ft 27 kts 169°
2026-05-06 11:08 48.58051 -2.07810 224 ft 24 kts 173°
2026-05-06 11:08 48.57922 -2.07790 224 ft 16 kts 173°
2026-05-06 11:08 48.57882 -2.07765 223 ft 2 kts 56°
2026-05-06 11:08 48.57891 -2.07764 223 ft 0 kts 350°
2026-05-06 11:09 48.58022 -2.07797 224 ft 61 kts 350°
2026-05-06 11:09 48.58780 -2.07996 360 ft 134 kts 352°
2026-05-06 11:10 48.59743 -2.08220 955 ft 148 kts 355°
2026-05-06 11:10 48.60840 -2.08353 1454 ft 172 kts 357°
2026-05-06 11:10 48.62133 -2.08662 1837 ft 203 kts 353°
2026-05-06 11:10 48.63609 -2.09041 2279 ft 231 kts 351°
2026-05-06 11:11 48.65295 -2.09466 2888 ft 255 kts 351°
2026-05-06 11:11 48.66998 -2.10009 4080 ft 250 kts 347°
2026-05-06 11:11 48.68698 -2.10633 5148 ft 255 kts 348°
2026-05-06 11:11 48.70461 -2.11130 6159 ft 260 kts 351°
2026-05-06 11:12 48.72261 -2.11561 7189 ft 264 kts 351°
2026-05-06 11:12 48.74103 -2.11720 8186 ft 272 kts
2026-05-06 11:12 48.75849 -2.10590 9303 ft 277 kts 33°
2026-05-06 11:12 48.77119 -2.08347 10176 ft 288 kts 60°
2026-05-06 11:13 48.77880 -2.05410 10539 ft 312 kts 70°
2026-05-06 11:13 48.78549 -2.02135 10736 ft 338 kts 72°
2026-05-06 11:13 48.79281 -1.98634 11124 ft 352 kts 70°
2026-05-06 11:13 48.80079 -1.95119 11960 ft 354 kts 70°
2026-05-06 11:14 48.80872 -1.91604 12656 ft 358 kts 70°
2026-05-06 11:14 48.81657 -1.87996 13204 ft 363 kts 71°
2026-05-06 11:14 48.82451 -1.84328 13738 ft 366 kts 71°
2026-05-06 11:14 48.83259 -1.80654 14262 ft 368 kts 70°
2026-05-06 11:15 48.84076 -1.76949 14799 ft 372 kts 70°
2026-05-06 11:15 48.84892 -1.73212 15316 ft 373 kts 70°
2026-05-06 11:15 48.85706 -1.69464 15901 ft 374 kts 70°
2026-05-06 11:15 48.86526 -1.65694 16492 ft 377 kts 70°
2026-05-06 11:16 48.87354 -1.61894 17246 ft 380 kts 70°
2026-05-06 11:16 48.88186 -1.58059 17972 ft 384 kts 70°
2026-05-06 11:16 48.89024 -1.54186 18653 ft 388 kts 70°
2026-05-06 11:16 48.89756 -1.50203 19198 ft 396 kts 79°
2026-05-06 11:17 48.89788 -1.45995 19842 ft 401 kts 92°
2026-05-06 11:17 48.89594 -1.41742 20505 ft 405 kts 93°
2026-05-06 11:17 48.89386 -1.37447 21275 ft 409 kts 93°
2026-05-06 11:17 48.89192 -1.33088 22086 ft 415 kts 93°
2026-05-06 11:18 48.89004 -1.28720 22823 ft 422 kts 92°
2026-05-06 11:18 48.88800 -1.24262 23606 ft 424 kts 93°
2026-05-06 11:18 48.88587 -1.19776 24238 ft 427 kts 93°
2026-05-06 11:18 48.88376 -1.15250 24777 ft 431 kts 93°
2026-05-06 11:19 48.88165 -1.10684 25344 ft 434 kts 93°
2026-05-06 11:19 48.87949 -1.06106 25925 ft 436 kts 93°
2026-05-06 11:19 48.87727 -1.01495 26427 ft 440 kts 93°
2026-05-06 11:19 48.87502 -0.96828 27016 ft 442 kts 93°
2026-05-06 11:20 48.87276 -0.92149 27593 ft 445 kts 93°
2026-05-06 11:20 48.87046 -0.87425 28135 ft 449 kts 93°
2026-05-06 11:20 48.86811 -0.82690 28825 ft 449 kts 93°
2026-05-06 11:20 48.86578 -0.78005 29373 ft 452 kts 93°
2026-05-06 11:21 48.86335 -0.73162 29902 ft 456 kts 93°
2026-05-06 11:21 48.86095 -0.68408 30354 ft 459 kts 93°
2026-05-06 11:21 48.85847 -0.63560 30818 ft 462 kts 93°
2026-05-06 11:21 48.85597 -0.58696 31422 ft 461 kts 93°
2026-05-06 11:22 48.85346 -0.53867 32120 ft 458 kts 93°
2026-05-06 11:22 48.85095 -0.49054 32797 ft 456 kts 93°
2026-05-06 11:22 48.84843 -0.44261 33448 ft 455 kts 93°
2026-05-06 11:22 48.84590 -0.39494 34117 ft 453 kts 93°
2026-05-06 11:23 48.84334 -0.34730 34640 ft 453 kts 94°
2026-05-06 11:23 48.84076 -0.29937 35093 ft 456 kts 94°
2026-05-06 11:23 48.83814 -0.25125 35563 ft 458 kts 94°
2026-05-06 11:23 48.83544 -0.20297 36024 ft 460 kts 95°
2026-05-06 11:24 48.83256 -0.15436 36489 ft 462 kts 95°
2026-05-06 11:24 48.82967 -0.10575 36935 ft 465 kts 95°
2026-05-06 11:24 48.82677 -0.05619 36955 ft 478 kts 95°
2026-05-06 11:24 48.82377 -0.00528 36961 ft 490 kts 95°
2026-05-06 11:25 48.82071 0.04573 36963 ft 501 kts 95°
2026-05-06 11:25 48.81421 0.15296 36963 ft 517 kts 95°
2026-05-06 11:26 48.80751 0.26249 36964 ft 526 kts 95°
2026-05-06 11:26 48.80059 0.37338 36957 ft 529 kts 96°
2026-05-06 11:27 48.79355 0.48463 36958 ft 530 kts 96°
2026-05-06 11:27 48.78289 0.59533 36939 ft 530 kts 101°
2026-05-06 11:28 48.76806 0.70505 36946 ft 532 kts 101°
2026-05-06 11:28 48.75459 0.81477 36946 ft 531 kts 101°
2026-05-06 11:29 48.73999 0.92453 36940 ft 531 kts 102°
2026-05-06 11:29 48.72603 1.03444 36944 ft 530 kts 102°
2026-05-06 11:30 48.71149 1.14433 36935 ft 531 kts 102°
2026-05-06 11:30 48.69714 1.25402 36930 ft 532 kts 102°
2026-05-06 11:31 48.68254 1.36358 36926 ft 530 kts 103°
2026-05-06 11:31 48.66795 1.47290 36920 ft 530 kts 102°
2026-05-06 11:32 48.65322 1.58219 36915 ft 530 kts 102°
2026-05-06 11:32 48.63846 1.69076 36908 ft 531 kts 103°
2026-05-06 11:33 48.62346 1.79975 36913 ft 528 kts 103°
2026-05-06 11:33 48.60840 1.90853 36911 ft 528 kts 103°
2026-05-06 11:34 48.59322 2.01728 36914 ft 529 kts 103°
2026-05-06 11:34 48.57792 2.12605 36914 ft 529 kts 103°
2026-05-06 11:35 48.55267 2.22964 36902 ft 526 kts 120°
2026-05-06 11:35 48.51160 2.32055 36915 ft 524 kts 128°
2026-05-06 11:36 48.46818 2.40797 36915 ft 525 kts 125°
2026-05-06 11:36 48.42803 2.50017 36921 ft 525 kts 126°
2026-05-06 11:37 48.38517 2.58920 36902 ft 527 kts 126°
2026-05-06 11:37 48.34398 2.68035 36904 ft 526 kts 126°
2026-05-06 11:38 48.30156 2.76991 36902 ft 526 kts 127°
2026-05-06 11:38 48.25583 2.85534 36897 ft 524 kts 137°
2026-05-06 11:39 48.20180 2.92862 36908 ft 523 kts 139°
2026-05-06 11:39 48.14894 3.00399 36906 ft 525 kts 137°
2026-05-06 11:40 48.09585 3.07745 36897 ft 523 kts 139°
2026-05-06 11:40 48.04229 3.15215 36897 ft 523 kts 138°
2026-05-06 11:41 47.98933 3.22565 36899 ft 523 kts 139°
2026-05-06 11:41 47.93590 3.29940 36897 ft 523 kts 138°
2026-05-06 11:42 47.88246 3.37328 36895 ft 523 kts 139°
2026-05-06 11:42 47.82904 3.44658 36886 ft 522 kts 139°
2026-05-06 11:43 47.77564 3.51992 36883 ft 522 kts 139°
2026-05-06 11:43 47.72214 3.59295 36876 ft 522 kts 139°
2026-05-06 11:44 47.64180 3.70240 36873 ft 522 kts 139°
2026-05-06 11:44 47.58821 3.77514 36873 ft 522 kts 139°
2026-05-06 11:45 47.53612 3.85014 36863 ft 524 kts 135°
2026-05-06 11:45 47.48654 3.92916 36867 ft 525 kts 135°
2026-05-06 11:46 47.43616 4.00717 36868 ft 524 kts 135°
2026-05-06 11:46 47.38648 4.08514 36869 ft 525 kts 135°
2026-05-06 11:47 47.33617 4.16312 36856 ft 523 kts 135°
2026-05-06 11:47 47.28605 4.24092 36861 ft 523 kts 135°
2026-05-06 11:48 47.24425 4.30555 36864 ft 523 kts 136°
2026-05-06 11:48 47.19391 4.38314 36860 ft 524 kts 135°
2026-05-06 11:49 47.14365 4.46045 36857 ft 523 kts 136°
2026-05-06 11:49 47.09353 4.53726 36858 ft 523 kts 136°
2026-05-06 11:50 47.06001 4.58857 36665 ft 512 kts 136°
2026-05-06 11:50 47.04389 4.61326 36210 ft 496 kts 136°
2026-05-06 11:50 47.02049 4.64899 35585 ft 475 kts 136°
2026-05-06 11:50 46.99804 4.68315 34989 ft 457 kts 136°
2026-05-06 11:51 46.97623 4.71626 34408 ft 447 kts 136°
2026-05-06 11:51 46.95473 4.74888 33876 ft 444 kts 136°
2026-05-06 11:51 46.93326 4.78145 33342 ft 448 kts 136°
2026-05-06 11:51 46.91154 4.81434 32704 ft 449 kts 135°
2026-05-06 11:52 46.88988 4.84715 32104 ft 446 kts 135°
2026-05-06 11:52 46.86840 4.87967 31517 ft 444 kts 135°
2026-05-06 11:52 46.84695 4.91207 30953 ft 445 kts 135°
2026-05-06 11:52 46.82528 4.94473 30324 ft 449 kts 134°
2026-05-06 11:53 46.80380 4.97709 29697 ft 439 kts 134°
2026-05-06 11:53 46.78273 5.00882 29187 ft 433 kts 134°
2026-05-06 11:53 46.76176 5.04036 28634 ft 432 kts 134°
2026-05-06 11:53 46.74092 5.07162 28092 ft 429 kts 134°
2026-05-06 11:54 46.72045 5.10232 27574 ft 426 kts 134°
2026-05-06 11:54 46.69981 5.13323 27036 ft 425 kts 134°
2026-05-06 11:54 46.68003 5.16502 26477 ft 422 kts 127°
2026-05-06 11:54 46.66639 5.20268 25968 ft 421 kts 111°
2026-05-06 11:55 46.65900 5.24383 25466 ft 419 kts 103°
2026-05-06 11:55 46.65292 5.28530 24924 ft 419 kts 103°
2026-05-06 11:55 46.64678 5.32679 24397 ft 420 kts 103°
2026-05-06 11:55 46.64041 5.36822 23875 ft 416 kts 104°
2026-05-06 11:56 46.63411 5.40911 23313 ft 412 kts 104°
2026-05-06 11:56 46.62804 5.44911 22806 ft 408 kts 103°
2026-05-06 11:56 46.62194 5.48937 22283 ft 408 kts 103°
2026-05-06 11:56 46.61571 5.52947 21768 ft 405 kts 104°
2026-05-06 11:57 46.60944 5.56929 21251 ft 401 kts 104°
2026-05-06 11:57 46.60326 5.60880 20760 ft 400 kts 103°
2026-05-06 11:57 46.59711 5.64824 20237 ft 400 kts 104°
2026-05-06 11:57 46.59098 5.68742 19711 ft 395 kts 105°
2026-05-06 11:58 46.58486 5.72621 19202 ft 392 kts 105°
2026-05-06 11:58 46.57874 5.76483 18700 ft 391 kts 105°
2026-05-06 11:58 46.56925 5.80150 18150 ft 385 kts 122°
2026-05-06 11:58 46.55268 5.83143 17649 ft 378 kts 139°
2026-05-06 11:59 46.53169 5.85423 17202 ft 378 kts 147°
2026-05-06 11:59 46.50990 5.87589 16699 ft 377 kts 147°
2026-05-06 11:59 46.48840 5.89732 16226 ft 369 kts 147°
2026-05-06 11:59 46.46788 5.91808 15814 ft 351 kts 147°
2026-05-06 12:00 46.44832 5.93779 15437 ft 334 kts 148°
2026-05-06 12:00 46.42976 5.95633 15105 ft 316 kts 147°
2026-05-06 12:00 46.41153 5.97448 14732 ft 318 kts 147°
2026-05-06 12:00 46.39328 5.99276 14322 ft 318 kts 147°
2026-05-06 12:01 46.37745 6.01525 13846 ft 326 kts 125°
2026-05-06 12:01 46.36909 6.04503 13420 ft 326 kts 104°
2026-05-06 12:01 46.36951 6.07821 12986 ft 347 kts 79°
2026-05-06 12:01 46.37952 6.10900 12536 ft 330 kts 53°
2026-05-06 12:02 46.39467 6.13282 12172 ft 315 kts 45°
2026-05-06 12:02 46.41013 6.15490 11771 ft 311 kts 44°
2026-05-06 12:02 46.42552 6.17707 11422 ft 311 kts 45°
2026-05-06 12:02 46.44074 6.19962 11022 ft 315 kts 45°
2026-05-06 12:03 46.45611 6.22243 10602 ft 314 kts 45°
2026-05-06 12:03 46.47109 6.24456 10193 ft 301 kts 45°
2026-05-06 12:03 46.48546 6.26576 9840 ft 288 kts 44°
2026-05-06 12:03 46.49893 6.28570 9490 ft 277 kts 45°
2026-05-06 12:04 46.51199 6.30509 9161 ft 268 kts 45°
2026-05-06 12:04 46.52239 6.32740 8732 ft 270 kts 71°
2026-05-06 12:04 46.52411 6.35405 8416 ft 264 kts 100°
2026-05-06 12:04 46.51737 6.37809 8094 ft 254 kts 129°
2026-05-06 12:05 46.50528 6.39654 7838 ft 253 kts 140°
2026-05-06 12:05 46.49250 6.41407 7505 ft 251 kts 142°
2026-05-06 12:05 46.47734 6.42516 7084 ft 242 kts 171°
2026-05-06 12:05 46.46134 6.42509 6930 ft 219 kts 197°
2026-05-06 12:06 46.44795 6.41655 6912 ft 206 kts 218°
2026-05-06 12:06 46.43730 6.40296 6676 ft 205 kts 228°
2026-05-06 12:06 46.42695 6.38760 6405 ft 217 kts 228°
2026-05-06 12:06 46.41633 6.37192 6103 ft 216 kts 228°
2026-05-06 12:07 46.40585 6.35650 5806 ft 211 kts 229°
2026-05-06 12:07 46.39553 6.34129 5511 ft 212 kts 229°
2026-05-06 12:07 46.38530 6.32621 5218 ft 209 kts 228°
2026-05-06 12:07 46.37523 6.31133 4938 ft 210 kts 228°
2026-05-06 12:08 46.36512 6.29631 4658 ft 203 kts 227°
2026-05-06 12:08 46.35545 6.28209 4379 ft 187 kts 227°
2026-05-06 12:08 46.34672 6.26909 4123 ft 178 kts 227°
2026-05-06 12:08 46.33815 6.25645 3890 ft 173 kts 226°
2026-05-06 12:09 46.32998 6.24444 3656 ft 162 kts 226°
2026-05-06 12:09 46.32231 6.23305 3446 ft 153 kts 227°
2026-05-06 12:09 46.31497 6.22225 3251 ft 148 kts 226°
2026-05-06 12:09 46.30772 6.21157 3050 ft 150 kts 226°
2026-05-06 12:10 46.30032 6.20059 2831 ft 156 kts 226°
2026-05-06 12:10 46.29288 6.18964 2589 ft 140 kts 226°
2026-05-06 12:10 46.28659 6.18039 2405 ft 122 kts 226°
2026-05-06 12:10 46.28100 6.17210 2213 ft 111 kts 226°
2026-05-06 12:11 46.27577 6.16416 2090 ft 109 kts 224°
2026-05-06 12:11 46.27048 6.15646 1968 ft 109 kts 224°
2026-05-06 12:11 46.26516 6.14863 1828 ft 108 kts 224°
2026-05-06 12:11 46.25986 6.14095 1695 ft 109 kts 223°
2026-05-06 12:12 46.25448 6.13300 1539 ft 112 kts 224°
2026-05-06 12:12 46.24901 6.12502 1377 ft 108 kts 224°
2026-05-06 12:12 46.24450 6.11843 1368 ft 67 kts 226°
2026-05-06 12:12 46.24208 6.11483 1371 ft 45 kts 227°
2026-05-06 12:13 46.24005 6.11186 1375 ft 38 kts 225°
2026-05-06 12:13 46.23834 6.10936 1378 ft 27 kts 225°
2026-05-06 12:13 46.23699 6.10791 1377 ft 17 kts 205°
2026-05-06 12:13 46.23611 6.10740 1378 ft 10 kts 196°
2026-05-06 12:14 46.23545 6.10712 1381 ft 10 kts 197°
2026-05-06 12:14 46.23472 6.10679 1385 ft 12 kts 197°
2026-05-06 12:14 46.23407 6.10634 1388 ft 6 kts 218°
2026-05-06 12:14 46.23362 6.10587 1388 ft 10 kts 223°
2026-05-06 12:15 46.23316 6.10520 1389 ft 10 kts 225°
2026-05-06 12:15 46.23255 6.10431 1387 ft 13 kts 225°
2026-05-06 12:15 46.23196 6.10346 1390 ft 12 kts 225°
2026-05-06 12:15 46.23135 6.10247 1390 ft 18 kts 229°
2026-05-06 12:16 46.23035 6.10097 1391 ft 22 kts 225°
2026-05-06 12:16 46.22932 6.09946 1396 ft 20 kts 225°
2026-05-06 12:16 46.22836 6.09808 1394 ft 19 kts 227°
2026-05-06 12:16 46.22749 6.09678 1392 ft 17 kts 224°
2026-05-06 12:17 46.22672 6.09568 1392 ft 13 kts 225°
2026-05-06 12:17 46.22629 6.09519 1386 ft 7 kts 182°
2026-05-06 12:17 46.22591 6.09570 1389 ft 9 kts 128°
2026-05-06 12:17 46.22597 6.09623 1388 ft 2 kts 45°
2026-05-06 12:18 46.22598 6.09625 1388 ft 0 kts 46°